n 0.00302036 Peri. 60.90878 -0.57348927 +0.81920306
a 47.3983980 Node 174.09244 -0.76462844 -0.53349644
e 0.1804386 Incl. 2.25510 -0.29402960 -0.21044688
P 326 H 6.7 G 0.15 U 4 MPEC 2011 - O34
|
|
|
|
|
|
Asteroid 2004 KM19
(Preview)
|
Asteroids
|
0
|
1511
|
|
|
Orbital elements:
2004 KM19
Epoch 2011 Aug. 27.0 TT = JDT 2455800.5 MPC
M 10.65671 (2000.0) P Q
n 0.00300452 Peri. 305.90173 -0.64623097 +0.76260556
a 47.5648832 Node 283.81460 -0.69033499 -0.60014552
e 0.2893447 Incl. 1.68807 -0.32530469 -0.24136719
P 328 H 8.2 G 0.15 U 3 MPEC 2011 - O34
|
|
|
|
|
|
Asteroid 2004 KL19
(Preview)
|
Asteroids
|
0
|
1718
|
|
|
Orbital elements:
2004 KL19
Epoch 2011 Aug. 27.0 TT = JDT 2455800.5 MPC
M 5.68442 (2000.0) P Q
n 0.00300993 Peri. 199.35222 -0.53165632 +0.84465836
a 47.5078671 Node 38.60045 -0.76329174 -0.44590425
e 0.3203766 Incl. 5.74026 -0.36705214 -0.29617842
P 327 H 8.7 G 0.15 U 3 MPEC 2011 - O34
|
|
|
|
|
|
Asteroid 2004 KV18
(Preview)
|
Asteroids
|
1
|
2275
|
|
|
Orbital elements:
2004 KV18
Epoch 2011 Aug. 27.0 TT = JDT 2455800.5 MPC
M 58.58713 (2000.0) P Q
n 0.00596069 Peri. 294.57748 -0.96434694 -0.17976645
a 30.1257920 Node 235.62729 +0.22798044 -0.93698737
e 0.1837787 Incl. 13.60940 -0.13438712 -0.29956417
P 165.35 H 8.9 G 0.15 U 3 MPEC 2011 -...
|
|
|
|
|
|
Eleven new TNOS
(Preview)
|
Asteroids
|
0
|
1851
|
|
|
Orbital elements:
2004 HQ79
Epoch 2011 Aug. 27.0 TT = JDT 2455800.5 MPC
M 4.68910 (2000.0) P Q
n 0.00197458 Peri. 173.54037 -0.85861020 +0.50805178
a 62.9244883 Node 37.25002 -0.47523692 -0.73888458
e 0.4192454 Incl. 6.48382 -0.19219366 -0.44264316
P 499 H 7.9 G 0.15 U 3
2004 OR15
Epo...
|
|
|
|
|
|
Five new TNOs
(Preview)
|
Asteroids
|
0
|
1790
|
|
|
Orbital elements:
2004 MW8
Epoch 2011 Aug. 27.0 TT = JDT 2455800.5 MPC
M 313.41489 (2000.0) P Q
n 0.00506341 Peri. 94.20710 +0.90552415 -0.40240607
a 33.5872095 Node 289.56591 +0.31007653 +0.84403038
e 0.3352260 Incl. 8.20774 +0.28961797 +0.35451668
P 194.65 H 8.5 G 0.15 U 2
2004 PY1...
|
|
|
|
|
|
Asteroid 2011 OF45
(Preview)
|
Asteroids
|
0
|
1884
|
|
|
Orbital elements:
2011 OF45
Epoch 2011 July 18.0 TT = JDT 2455760.5 MPC
M 333.62659 (2000.0) P Q
n 0.03536798 Peri. 27.10722 +0.94130481 +0.25289866
a 9.1917005 Node 316.27557 -0.33724911 +0.73289957
e 0.1288386 Incl. 18.87286 +0.01443194 +0.63158569
P 27.9 H 12.7 G 0.15
From 17 observ...
|
|
|
|
|
|
Asteroid 2011 ON45
(Preview)
|
Asteroids
|
0
|
1832
|
|
|
Orbital elements:
2011 ON45
Epoch 2011 July 18.0 TT = JDT 2455760.5 MPC
M 359.79032 (2000.0) P Q
n 0.02227937 Peri. 348.24974 +0.76285223 +0.64358660
a 12.5083702 Node 331.39369 -0.58222262 +0.64200569
e 0.1226994 Incl. 7.44884 -0.28119976 +0.41668331
P 44.2 H 11.5 G 0.15
From 12 obser...
|
|
|
|
|
|
Trans-Neptunian Binaries
(Preview)
|
Asteroids
|
2
|
3083
|
|
|
Title: Characterisation of Seven Ultra-Wide Trans-Neptunian Binaries Authors: Alex H. Parker, JJ. Kavelaars, Jean-Marc Petit, Lynne Jones, Brett Gladman, Joel Parker The low-inclination component of the Classical Kuiper Belt is host to a population of extremely widely-separated binaries...
|
|
|
|
|
|
Asteroid 2011 QT2
(Preview)
|
Asteroids
|
0
|
1694
|
|
|
Orbital elements:
2010 RM64
Epoch 2011 Aug. 27.0 TT = JDT 2455800.5 MPC
M 355.28887 (2000.0) P Q
n 0.01130835 Peri. 291.08683 +0.61328276 -0.67238415
a 19.6578781 Node 113.99836 +0.78020952 +0.59747587
e 0.6867140 Incl. 26.98042 -0.12311524 +0.43694637
P 87.16 H 11.0 G 0.15 U 2 MPEC 2011...
|
|
|
|
|
|
Asteroid 2010 VZ98
(Preview)
|
Asteroids
|
0
|
1989
|
|
|
Orbital elements:
2010 VZ98
Epoch 2011 Aug. 27.0 TT = JDT 2455800.5 MPC
M 356.61270 (2000.0) P Q
n 0.00069096 Peri. 306.09033 +0.44389071 -0.89335834
a 126.7170625 Node 117.41518 +0.84534342 +0.39164579
e 0.7187668 Incl. 4.50981 +0.29724662 +0.22028267
P 1430 H 4.9 G 0.15 U 6 MPEC 2011 - Q...
|
|
|
|
|
|
Asteroid 2010 TY53
(Preview)
|
Asteroids
|
0
|
1739
|
|
|
Orbital elements:
2010 TY53
Epoch 2011 Aug. 27.0 TT = JDT 2455800.5 MPC
M 316.27376 (2000.0) P Q
n 0.00390439 Peri. 2.31077 -0.39838430 -0.84545178
a 39.9424104 Node 111.34433 +0.83528864 -0.49460854
e 0.4761955 Incl. 22.44907 +0.37892326 +0.20142910
P 252 H 5.2 G 0.15 U 6 MPEC 2011 - R36 D...
|
|
|
|
|
|
Asteroid 2012 BR61
(Preview)
|
Asteroids 2012
|
1
|
1886
|
|
|
Orbital elements:
2012 BR61
Epoch 2012 Jan. 14.0 TT = JDT 2455940.5 MPC
M 1.59456 (2000.0) P Q
n 0.00748201 Peri. 101.84466 -0.63310120 -0.77390334
a 25.8895044 Node 27.45480 +0.69598591 -0.57817184
e 0.5201505 Incl. 1.99066 +0.33880154 -0.25843945
P 132 H 9.8 G 0.15
From 12 observatio...
|
|
|
|
|
|
Asteroid 2012 BX85
(Preview)
|
Asteroids 2012
|
0
|
2071
|
|
|
Orbital elements:
2012 BX85
Epoch 2012 Jan. 14.0 TT = JDT 2455940.5 MPC
M 286.99245 (2000.0) P Q
n 0.00339720 Peri. 259.33806 -0.83884231 +0.54415674
a 43.8250250 Node 313.62693 -0.49077140 -0.76817866
e 0.1024533 Incl. 1.21870 -0.23555680 -0.33733512
P 290 H 5.5 G 0.15
From 14 observa...
|
|
|
|
|
|
Asteroid 2012 CG
(Preview)
|
Asteroids 2012
|
1
|
1857
|
|
|
Orbital elements:
2012 CG
Epoch 2012 Jan. 14.0 TT = JDT 2455940.5 MPC
M 137.21202 (2000.0) P Q
n 0.01412677 Peri. 212.88336 +0.93221219 +0.26435404
a 16.9475734 Node 129.74150 -0.22146404 +0.95685349
e 0.2022784 Incl. 18.75096 -0.28624135 +0.12061647
P 69.8 H 8.7 G 0.15
From 13 observa...
|
|
|
|
|
|
Asteroid 2012 DR30
(Preview)
|
Asteroids 2012
|
3
|
4049
|
|
|
Orbital elements:
2012 DR30
Epoch 2012 Feb. 23.0 TT = JDT 2455980.5 MPC
M 0.00023 (2000.0) P Q
n 0.00048493 Peri. 203.99474 -0.89403431 +0.30999605
a 160.4539006 Node 340.53326 +0.35150415 +0.03779252
e 0.9100696 Incl. 76.04753 -0.27775437 -0.94998641
P2032 H 7.2 G 0.15
From 68 observ...
|
|
|
|
|
|
TNO (55638) 2002 VE95
(Preview)
|
Asteroids 2012
|
0
|
1859
|
|
|
Title: The extra red plutino (55638) 2002 VE95 Author(s): M.A. Barucci, F. Merlin, D. Perna, A. Alvarez-Candal, T. Muller, M. Mommert, C. Kiss, S. Fornasier, P. Santos-Sanz, E. Dotto ~ Read more (333.8kb, PDF) (55638) 2002 VE95, also written as 2002 VE95, is a trans-Neptunian object (TNO) with...
|
|
|
|
|
|
TNO 2012 DS85
(Preview)
|
Asteroids 2012
|
0
|
1737
|
|
|
Orbital elements:
2012 DS85
Epoch 2012 Feb. 23.0 TT = JDT 2455980.5 MPC
M 346.55721 (2000.0) P Q
n 0.01022778 Peri. 20.91963 -0.85522226 -0.47577591
a 21.0191536 Node 128.97404 +0.42999996 -0.87275348
e 0.2027656 Incl. 15.32763 +0.28930072 -0.10926412
P 96.4 H 9.8 G 0.15
From 27 observ...
|
|
|
|
|
|
Asteroid 2010 VQ11
(Preview)
|
Asteroids 2012
|
0
|
1667
|
|
|
Orbital elements:
2010 VQ11
Epoch 2012 Mar. 14.0 TT = JDT 2456000.5 MPC
M 32.72557 (2000.0) P Q
n 0.00319244 Peri. 209.72220 +0.90948090 -0.41519691
a 45.6794784 Node 174.67343 +0.41217231 +0.89375359
e 0.1585384 Incl. 13.29900 +0.05439188 +0.16975287
P 309 H 5.7 G 0.15 U 5 MPEC 2012 - F15...
|
|
|
|
|
|
Asteroid 2010 RE64
(Preview)
|
Asteroids 2012
|
0
|
1399
|
|
|
Orbital elements:
2010 RE64
Epoch 2012 Mar. 14.0 TT = JDT 2456000.5 MPC
M 312.97802 (2000.0) P Q
n 0.00193420 Peri. 20.40818 +0.04436245 -0.97533899
a 63.7971800 Node 67.56194 +0.88107251 -0.06381441
e 0.4159312 Incl. 13.52780 +0.47089617 +0.21128553
P 510 H 4.3 G 0.15 U 6 MPEC 2012 - F41
|
|
|
|
|
|
Asteroid 2011 KP36
(Preview)
|
Asteroids
|
5
|
4612
|
|
|
Orbital elements:
2011 KP36
Epoch 2011 May 19.0 TT = JDT 2455700.5 MPC
M 355.23239 (2000.0) P Q
n 0.00266722 Peri. 180.22294 +0.99365172 +0.10597689
a 51.4948070 Node 173.33012 -0.10270718 +0.99148991
e 0.9071053 Incl. 18.96709 -0.04590741 +0.07560851
P 370 H 9.4 G 0.15
From 52 observa...
|
|
|
|
|
|
Asteroid 2010 EK139
(Preview)
|
Solar System
|
7
|
12965
|
|
|
Orbital elements: 2010 EK139 Epoch 2010 Mar. 25.0 TT = JDT 2455280.5 MPC M 0.04068 (2000.0) P Q n 0.00337448 Peri. 219.30071 -0.83904880 +0.53899375 a 44.0215315 Node 352.16999 -0.24958312 -0.50226240 e 0.0812538 Incl. 32.92361 -0.48343084 -0.67617913 P 292 H 3.9 G 0.15 From 7 observations 2010...
|
|
|
|
|
|
Asteroid 2012 BX85
(Preview)
|
Asteroids 2012
|
0
|
1478
|
|
|
Orbital elements:
2012 BX85
Epoch 2012 Sept. 30.0 TT = JDT 2456200.5 MPC
M 189.04900 (2000.0) P Q
n 0.00351226 Peri. 346.03469 +0.50451748 +0.86329457
a 42.8625950 Node 314.26258 -0.79032301 +0.45542199
e 0.0036682 Incl. 1.08705 -0.34763723 +0.21751620
P 281 H 5.5 G 0.15 U 4 MPEC 2012 - W2...
|
|
|
|
|
|
Asteroid 2011 JW31
(Preview)
|
Asteroids 2012
|
0
|
1464
|
|
|
Orbital elements:
2011 JW31
Epoch 2012 Sept. 30.0 TT = JDT 2456200.5 MPC
M 14.89461 (2000.0) P Q
n 0.00322116 Peri. 52.38750 -0.14534367 +0.98925202
a 45.4074907 Node 209.26732 -0.91773393 -0.14083882
e 0.0541965 Incl. 1.87424 -0.36964800 -0.03930483
P 306 H 9.3 G 0.15 U 5 MPEC 2012 - W26
|
|
|
|
|
|
Asteroid 2011 HZ102
(Preview)
|
Asteroids 2012
|
0
|
1478
|
|
|
Orbital elements:
2011 HZ102
Epoch 2012 Sept. 30.0 TT = JDT 2456200.5 MPC
M 261.33163 (2000.0) P Q
n 0.00349189 Peri. 223.11023 +0.95188329 -0.30593972
a 43.0291480 Node 154.68807 +0.29130703 +0.88517410
e 0.0069918 Incl. 2.39457 +0.09517574 +0.35052488
P 282 H 9.4 G 0.15 U 5 MPEC 2012 - W...
|
|
|
|
|
|
Asteroid 2011 JY31
(Preview)
|
Asteroids 2012
|
0
|
1575
|
|
|
Orbital elements:
2011 JY31
Epoch 2012 Sept. 30.0 TT = JDT 2456200.5 MPC
M 305.23492 (2000.0) P Q
n 0.00339445 Peri. 106.08251 +0.92391190 +0.38094068
a 43.8486407 Node 231.53947 -0.36613295 +0.85324149
e 0.0473901 Incl. 2.60953 -0.11105614 +0.35617855
P 290 H 8.9 G 0.15 U 3 MPEC 2012 - X6...
|
|
|
|
|
|
Asteroid 2011 JX31
(Preview)
|
Asteroids 2012
|
0
|
1786
|
|
|
Orbital elements:
2011 JX31
Epoch 2012 Sept. 30.0 TT = JDT 2456200.5 MPC
M 110.08221 (2000.0) P Q
n 0.00328988 Peri. 17.65063 -0.91847364 -0.39367098
a 44.7729797 Node 139.10135 +0.35552747 -0.86377237
e 0.1090078 Incl. 3.31035 +0.17322354 -0.31451622
P 300 H 8.2 G 0.15 U 2 MPEC 2012 - X59...
|
|
|
|
|
|
Asteroid 2013 BK78
(Preview)
|
Asteroids 2013
|
0
|
1648
|
|
|
Orbital elements:
2013 BK78
Epoch 2013 Jan. 8.0 TT = JDT 2456300.5 MPC
M 0.77524 (2000.0) P Q
n 0.00300615 Peri. 286.70226 -0.22591743 -0.97414347
a 47.5476152 Node 176.35200 +0.90757216 -0.21137615
e 0.8273439 Incl. 2.17060 +0.35394079 -0.07977854
